Home   Weather   Nassau   Past weeks

Flag for Bahamas Past Weather in Nassau, Bahamas — Yesterday and Last 2 Weeks

Now
86 °F

Broken clouds.


Feels Like: 99 °F
Forecast: N/A
Wind: 12 mph from Northeast

Location: Nassau Airport

Current Time: Oct 1, 2016 at 4:46:57 PM

Latest Report: Oct 1, 2016 at 4:00 PM


Visibility: N/A

Pressure: 29.94 "Hg

Humidity: 79%

Dew Point: 79 °F

Location of NassauLocation

Past Weather in Nassau — Graph

°F

Nassau Temperature Yesterday

Maximum temperature yesterday: 91 °F (at 12:00 PM)
Minimum temperature yesterday: 81 °F (at 12:00 AM)
Average temperature yesterday: 84 °F

High & Low Weather Summary for the Past Weeks

 TemperatureHumidityPressure
High95 °F (Sep 18, 1:00 PM)100% (Sep 19, 9:00 AM)30.12 "Hg (Sep 19, 9:00 AM)
Low68 °F (Sep 19, 9:00 AM)49% (Sep 28, 1:00 PM)29.93 "Hg (Sep 21, 4:00 AM)
Average83 °F77%30.01 "Hg
* Reported Sep 16 3:00 PM — Oct 1 3:00 PM, Nassau, Weather by CustomWeather, © 2016

Note: Actual official high and low records may vary slightly from our data, if they occured in-between our weather recording intervals... More about our weather records

Advertising

Nassau Weather History for the Previous 24 Hours

Scroll right to see more
 ConditionsComfort  
Time TempWeatherWind HumidityBarometerVisibility
3:00 PM
Sat, Oct 1
86 °FScattered showers. Broken clouds.10 mph79%29.95 "HgN/A
2:00 PM86 °FBroken clouds.12 mph79%29.96 "HgN/A
1:00 PM86 °FPartly sunny.10 mph75%29.99 "HgN/A
12:00 PM86 °FBroken clouds.9 mph75%30.01 "HgN/A
11:00 AM84 °FBroken clouds.7 mph84%30.03 "HgN/A
10:00 AM86 °FBroken clouds.12 mph70%30.02 "HgN/A
9:00 AM88 °FPartly sunny.6 mph66%30.01 "HgN/A
8:00 AM82 °FBroken clouds.3 mph84%N/AN/A
7:00 AM79 °FPassing clouds.No wind89%29.99 "HgN/A
6:00 AM79 °FPassing clouds.7 mph89%29.98 "HgN/A
5:00 AM79 °FPassing clouds.No wind89%29.98 "HgN/A
4:00 AM79 °FPartly cloudy.No wind89%29.97 "HgN/A
3:00 AM79 °FThundershowers. Partly cloudy.No wind89%29.99 "HgN/A
2:00 AM77 °FThunderstorms. Partly cloudy.No wind94%30.02 "Hg6 mi
1:00 AM81 °FSprinkles. Passing clouds.9 mph89%30.03 "Hg6 mi
12:00 AM81 °FThundershowers. Partly cloudy.5 mph89%30.03 "HgN/A
11:00 PM
Fri, Sep 30
81 °FThundershowers. Partly cloudy.8 mph89%30.03 "HgN/A
10:00 PM81 °FPassing clouds.6 mph89%30.03 "HgN/A
9:00 PM82 °FPassing clouds.5 mph84%30.02 "HgN/A
8:00 PM84 °FPassing clouds.7 mph79%30.01 "HgN/A
7:00 PM84 °FPassing clouds.7 mph79%29.98 "HgN/A
6:00 PM84 °FScattered clouds.6 mph79%29.98 "HgN/A
5:00 PM86 °FBroken clouds.7 mph79%29.98 "HgN/A
Weather by CustomWeather, © 2016

See weather overviewHow to use our weather pages